SR9SMR Weather Reports


time (UTC)temp
F
wind
direction
speed
knots
gust
knots
rain 1hr
in
rain 24hr
in
rain mn
in
humidity
%
barometer
mb
20260506025016 49 216 20.0 36.5 0.00 0.00 0.00 100 889.4
20260506024513 49 216 20.9 38.2 0.00 0.00 0.00 100 891.1
20260506024011 49 216 20.9 33.9 0.00 0.00 0.00 100 896.8
20260506023510 49 216 20.0 33.9 0.00 0.00 0.00 100 895.8
20260506023210 50 217 21.7 35.6 0.00 0.00 0.00 100 889.0
20260506023008 49 217 19.1 35.6 0.00 0.00 0.00 100 890.2
20260506022506 49 213 19.1 35.6 0.00 0.00 0.00 100 892.0
20260506022004 50 216 17.4 33.0 0.00 0.00 0.00 100 890.4
20260506021502 50 209 19.1 35.6 0.00 0.00 0.00 100 890.4
20260506021000 50 218 19.1 32.2 0.00 0.00 0.00 100 893.3
20260506020456 50 214 20.9 35.6 0.00 0.00 0.00 100 892.1
20260506015955 50 220 20.9 32.2 0.00 0.00 0.00 100 888.7
20260506015451 50 218 20.9 33.9 0.00 0.00 0.00 100 892.3
20260506014950 50 221 24.3 38.2 0.00 0.00 0.00 100 888.2
20260506014449 51 215 21.7 39.1 0.00 0.00 0.00 100 896.6
20260506013947 51 217 23.5 38.2 0.00 0.00 0.00 100 888.0
20260506013442 51 215 22.6 36.5 0.00 0.00 0.00 100 889.6
20260506012940 51 222 20.9 36.5 0.00 0.00 0.00 100 891.9
20260506012438 51 221 20.0 34.8 0.00 0.00 0.00 100 890.6
20260506011935 51 221 18.2 33.9 0.00 0.00 0.00 100 894.5
20260506011433 51 209 18.2 29.5 0.00 0.00 0.00 100 890.6
20260506010932 51 215 16.5 26.1 0.00 0.00 0.00 100 896.2
20260506010419 51 209 14.8 24.3 0.00 0.00 0.00 100 897.5
20260506005916 51 204 14.8 28.7 0.00 0.00 0.00 100 890.0
20260506005516 51 221 17.4 32.2 0.00 0.00 0.00 100 889.3
20260506005413 51 221 17.4 32.2 0.00 0.00 0.00 100 891.9
20260506004913 52 212 15.6 29.5 0.00 0.00 0.00 100 889.8
20260506004410 52 217 20.0 30.4 0.00 0.00 0.00 100 888.8
20260506003908 52 217 20.0 34.8 0.00 0.00 0.00 100 895.7
20260506003406 52 219 20.0 36.5 0.00 0.00 0.00 100 894.0
20260506002903 52 217 20.9 34.8 0.00 0.00 0.00 100 889.2
20260506002401 52 218 22.6 42.6 0.00 0.00 0.00 100 898.1
20260506001859 53 216 20.0 46.1 0.00 0.00 0.00 100 896.5
20260506001359 53 215 22.6 37.4 0.00 0.00 0.00 100 889.0
20260506000857 53 215 22.6 42.6 0.00 0.00 0.00 100 897.3
20260506000355 53 217 19.1 41.7 0.00 0.00 0.00 100 895.3
20260505235854 53 218 20.0 34.8 0.00 0.00 0.00 100 889.7
20260505235353 53 215 21.7 37.4 0.00 0.00 0.00 100 889.7
20260505234851 54 217 22.6 38.2 0.00 0.00 0.00 100 892.7
20260505234349 54 215 22.6 41.7 0.00 0.00 0.00 100 890.0
20260505233848 54 210 20.9 41.7 0.00 0.00 0.00 100 890.9
20260505233345 54 213 20.0 37.4 0.00 0.00 0.00 100 890.8
20260505233246 54 213 20.0 39.1 0.00 0.00 0.00 100 890.8
20260505233040 54 214 22.6 43.4 0.00 0.00 0.00 100 889.1
20260505232838 54 214 20.9 43.4 0.00 0.00 0.00 100 891.1
20260505232637 55 212 20.9 35.6 0.00 0.00 0.00 100 894.4
20260505232437 55 213 23.5 40.0 0.00 0.00 0.00 100 890.0
20260505232337 55 211 24.3 40.0 0.00 0.00 0.00 100 896.7
20260505232236 55 210 24.3 40.0 0.00 0.00 0.00 100 889.2
20260505232035 55 211 21.7 40.0 0.00 0.00 0.00 100 890.4
20260505231835 55 217 20.9 39.1 0.00 0.00 0.00 100 897.0
20260505231634 55 218 22.6 39.1 0.00 0.00 0.00 100 890.7
20260505231433 55 222 21.7 39.1 0.00 0.00 0.00 100 894.4
20260505231334 55 220 20.9 34.8 0.00 0.00 0.00 100 889.8
20260505231232 55 217 21.7 35.6 0.00 0.00 0.00 100 891.7
20260505231032 55 215 22.6 37.4 0.00 0.00 0.00 100 895.5
20260505230831 55 214 23.5 37.4 0.00 0.00 0.00 100 889.6
20260505230630 55 218 20.9 37.4 0.00 0.00 0.00 100 895.6
20260505230429 55 221 19.1 31.3 0.00 0.00 0.00 100 889.8
20260505230330 55 221 20.0 33.9 0.00 0.00 0.00 100 890.5
20260505230225 55 220 20.9 36.5 0.00 0.00 0.00 100 893.2
20260505230025 55 211 24.3 48.7 0.00 0.00 0.00 100 889.5
20260505225824 56 210 26.1 48.7 0.00 0.00 0.00 100 895.5
20260505225624 55 215 22.6 42.6 0.00 0.00 0.00 100 895.0
20260505225423 56 211 22.6 36.5 0.00 0.00 0.00 100 889.6
20260505225324 56 211 22.6 40.0 0.00 0.00 0.00 100 891.4
20260505225222 55 209 21.7 40.0 0.00 0.00 0.00 100 896.2
20260505225022 55 211 21.7 40.0 0.00 0.00 0.00 100 889.8
20260505224821 56 211 23.5 44.3 0.00 0.00 0.00 100 896.0
20260505224620 55 212 21.7 44.3 0.00 0.00 0.00 100 889.8
20260505224420 55 214 18.2 32.2 0.00 0.00 0.00 100 890.2
20260505224319 55 212 18.2 32.2 0.00 0.00 0.00 100 891.9
20260505224146 55 212 18.2 44.3 0.00 0.00 0.00 100 895.8
20260505224043 55 216 19.1 44.3 0.00 0.00 0.00 100 890.2
20260505223840 55 219 21.7 44.3 0.00 0.00 0.00 100 892.9
20260505223638 55 218 20.0 35.6 0.00 0.00 0.00 100 891.0
20260505223437 55 208 19.1 33.0 0.00 0.00 0.00 100 891.0
20260505223236 55 203 17.4 30.4 0.00 0.00 0.00 100 896.7
20260505223137 55 205 16.5 30.4 0.00 0.00 0.00 100 896.7
20260505223036 55 208 17.4 31.3 0.00 0.00 0.00 100 893.7
20260505222835 55 206 18.2 31.3 0.00 0.00 0.00 100 890.9
20260505222634 55 199 19.1 31.3 0.00 0.00 0.00 100 894.7
20260505222433 55 202 16.5 33.0 0.00 0.00 0.00 100 894.0
20260505222235 55 203 17.4 32.2 0.00 0.00 0.00 100 892.6
20260505222232 55 203 17.4 32.2 0.00 0.00 0.00 100 891.3
20260505222132 55 203 18.2 32.2 0.00 0.00 0.00 100 891.3
20260505222020 55 203 19.1 32.2 0.00 0.00 0.00 100 896.8
20260505221819 55 207 17.4 30.4 0.00 0.00 0.00 100 896.2
20260505221618 55 210 15.6 28.7 0.00 0.00 0.00 100 894.2
20260505221418 55 210 14.8 26.9 0.00 0.00 0.00 100 891.3
20260505221219 55 207 16.5 32.2 0.00 0.00 0.00 100 892.7
20260505221216 55 207 16.5 32.2 0.00 0.00 0.00 100 895.5
20260505221116 55 207 16.5 32.2 0.00 0.00 0.00 100 895.5
20260505220833 55 202 15.6 27.8 0.00 0.00 0.00 100 896.7
20260505220629 55 201 13.9 20.9 0.00 0.00 0.00 100 892.9
20260505220425 55 199 13.9 25.2 0.00 0.00 0.00 100 891.9
20260505220324 55 196 13.9 25.2 0.00 0.00 0.00 100 892.9
20260505220221 55 199 16.5 26.9 0.00 0.00 0.00 100 891.5
20260505220020 56 207 16.5 26.9 0.00 0.00 0.00 100 893.5
20260505215819 56 208 16.5 32.2 0.00 0.00 0.00 100 891.5
20260505215618 56 203 17.4 32.2 0.00 0.00 0.00 100 893.5
20260505215418 56 203 18.2 32.2 0.00 0.00 0.00 100 893.1
20260505215318 56 205 16.5 28.7 0.00 0.00 0.00 100 893.9
20260505215217 56 208 15.6 26.1 0.00 0.00 0.00 100 893.9
20260505215016 56 206 16.5 32.2 0.00 0.00 0.00 100 895.2
20260505214815 56 200 19.1 32.2 0.00 0.00 0.00 100 893.6
20260505214614 56 203 19.1 34.8 0.00 0.00 0.00 100 892.2
20260505214414 56 205 21.7 34.8 0.00 0.00 0.00 100 892.0
20260505214314 56 202 20.9 34.8 0.00 0.00 0.00 100 894.8
20260505214212 56 201 18.2 34.8 0.00 0.00 0.00 100 891.5
20260505214012 56 200 15.6 33.9 0.00 0.00 0.00 100 893.2
20260505213811 56 198 16.5 30.4 0.00 0.00 0.00 100 896.6
20260505213610 56 201 17.4 33.0 0.00 0.00 0.00 100 892.1
20260505213407 56 207 18.2 33.9 0.00 0.00 0.00 100 894.4
20260505213305 56 205 18.2 36.5 0.00 0.00 0.00 100 895.9
20260505213029 56 201 15.6 36.5 0.00 0.00 0.00 100 891.4
20260505212928 56 201 14.8 27.8 0.00 0.00 0.00 100 891.9
20260505212825 56 201 13.9 27.8 0.00 0.00 0.00 100 892.9
20260505212621 56 200 15.6 27.8 0.00 0.00 0.00 100 894.6
20260505212417 56 203 15.6 27.8 0.00 0.00 0.00 100 893.3
20260505212216 55 205 13.9 27.8 0.00 0.00 0.00 100 893.8
20260505212016 55 210 14.8 27.8 0.00 0.00 0.00 100 896.9
20260505211915 55 211 13.9 27.8 0.00 0.00 0.00 100 892.9
20260505211750 56 208 14.8 22.6 0.00 0.00 0.00 100 897.1
20260505211649 56 204 13.9 22.6 0.00 0.00 0.00 100 892.3
20260505211506 56 201 13.9 22.6 0.00 0.00 0.00 100 895.6
20260505211405 56 201 14.8 28.7 0.00 0.00 0.00 100 895.6
20260505211211 56 201 14.8 28.7 0.00 0.00 0.00 100 897.4
20260505211107 56 202 13.9 28.7 0.00 0.00 0.00 100 892.2
20260505210906 56 207 13.0 20.9 0.00 0.00 0.00 100 892.8
20260505210745 56 209 10.4 19.1 0.00 0.00 0.00 100 896.6
20260505210705 56 209 10.4 19.1 0.00 0.00 0.00 100 896.6
20260505210503 56 205 11.3 19.1 0.00 0.00 0.00 100 897.4
20260505210303 56 204 12.2 20.0 0.00 0.00 0.00 100 892.7
20260505210203 56 205 11.3 20.0 0.00 0.00 0.00 100 892.7
20260505210050 56 208 11.3 20.0 0.00 0.00 0.00 100 893.9
20260505205844 56 210 12.2 20.9 0.00 0.00 0.00 100 893.7
20260505205642 56 211 13.0 21.7 0.00 0.00 0.00 100 899.1
20260505205437 56 206 13.0 24.3 0.00 0.00 0.00 100 892.7
20260505205335 56 205 13.0 26.1 0.00 0.00 0.00 100 892.9
20260505205233 56 207 13.0 26.1 0.00 0.00 0.00 100 893.4
20260505205029 56 207 13.0 26.1 0.00 0.00 0.00 100 893.4
20260505204824 57 205 13.0 25.2 0.00 0.00 0.00 100 897.4
20260505204729 57 207 13.0 20.9 0.00 0.00 0.00 100 893.0
20260505204624 57 209 12.2 20.9 0.00 0.00 0.00 100 892.7
20260505204528 56 207 13.0 20.9 0.00 0.00 0.00 100 892.9
20260505204421 56 205 13.9 22.6 0.00 0.00 0.00 100 893.3
20260505204320 56 205 13.9 22.6 0.00 0.00 0.00 100 893.3
20260505204106 57 204 13.0 22.6 0.00 0.00 0.00 100 897.1
20260505204005 57 207 13.0 22.6 0.00 0.00 0.00 100 894.7
20260505203902 57 211 13.9 24.3 0.00 0.00 0.00 100 897.0
20260505203658 57 218 15.6 24.3 0.00 0.00 0.00 100 892.8
20260505203454 57 212 14.8 22.6 0.00 0.00 0.00 100 893.2
20260505203250 57 210 13.0 22.6 0.00 0.00 0.00 100 895.7
20260505203047 57 215 13.9 26.9 0.00 0.00 0.00 100 894.6
20260505202946 57 218 15.6 29.5 0.00 0.00 0.00 100 894.6
20260505202731 57 219 16.5 29.5 0.00 0.00 0.00 100 893.0
20260505202630 57 214 15.6 29.5 0.00 0.00 0.00 100 892.8
20260505202527 57 212 14.8 23.5 0.00 0.00 0.00 100 892.9
20260505202324 57 221 14.8 25.2 0.00 0.00 0.00 100 896.3
20260505202120 57 218 15.6 25.2 0.00 0.00 0.00 100 893.4
20260505201916 57 210 15.6 28.7 0.00 0.00 0.00 100 897.7
20260505201714 57 210 16.5 31.3 0.00 0.00 0.00 100 893.6
20260505201613 57 210 16.5 31.3 0.00 0.00 0.00 100 893.6
20260505201359 58 211 15.6 31.3 0.00 0.00 0.00 100 894.5
20260505201156 58 212 16.5 30.4 0.00 0.00 0.00 100 896.6
20260505200951 58 221 17.4 30.4 0.00 0.00 0.00 100 893.9
20260505200851 58 220 17.4 27.8 0.00 0.00 0.00 100 893.7
20260505200748 58 220 16.5 27.8 0.00 0.00 0.00 100 893.5
20260505200544 58 216 15.6 26.9 0.00 0.00 0.00 100 893.7
20260505200339 58 215 16.5 27.8 0.00 0.00 0.00 100 896.2
20260505200137 58 215 17.4 27.8 0.00 0.00 0.00 100 894.0
20260505195940 58 211 16.5 27.8 0.00 0.00 0.00 100 894.0
20260505195936 58 211 16.5 27.8 0.00 0.00 0.00 100 893.9
20260505195834 58 211 16.5 27.8 0.00 0.00 0.00 100 893.9
20260505195644 58 210 15.6 27.8 0.00 0.00 0.00 100 893.7
20260505195405 58 211 16.5 30.4 0.00 0.00 0.00 100 895.5
20260505195205 58 208 15.6 30.4 0.00 0.00 0.00 100 894.5
20260505195002 59 210 15.6 26.9 0.00 0.00 0.00 100 894.6
20260505194901 59 210 15.6 26.9 0.00 0.00 0.00 100 894.5
20260505194725 59 207 15.6 28.7 0.00 0.00 0.00 100 894.5
20260505194523 59 207 16.5 28.7 0.00 0.00 0.00 100 894.6
20260505194323 59 205 14.8 23.5 0.00 0.00 0.00 100 894.6
20260505194223 59 205 14.8 23.5 0.00 0.00 0.00 100 894.6
20260505193903 59 209 15.6 30.4 0.00 0.00 0.00 100 894.5
20260505193802 59 212 15.6 30.4 0.00 0.00 0.00 100 894.5
20260505193553 59 209 13.0 24.3 0.00 0.00 0.00 100 894.5
20260505193452 59 210 13.0 22.6 0.00 0.00 0.00 100 894.5
20260505193323 59 208 12.2 22.6 0.00 0.00 0.00 100 894.5
20260505193221 59 208 13.9 29.5 0.00 0.00 0.00 100 894.6
20260505192931 59 205 18.2 31.3 0.00 0.00 0.00 100 894.6
20260505192730 59 206 17.4 31.3 0.00 0.00 0.00 100 894.5
20260505192529 59 207 15.6 31.3 0.00 0.00 0.00 100 894.7
20260505192325 59 202 14.8 26.1 0.00 0.00 0.00 100 894.7
20260505192223 59 202 15.6 26.1 0.00 0.00 0.00 100 894.6
20260505192022 59 207 15.6 25.2 0.00 0.00 0.00 100 894.6
20260505191817 59 210 13.9 24.3 0.00 0.00 0.00 100 894.6
20260505191609 59 207 13.0 22.6 0.00 0.00 0.00 100 894.7
20260505191405 59 206 14.8 26.1 0.00 0.00 0.00 100 894.6
20260505191305 59 206 15.6 27.8 0.00 0.00 0.00 100 894.6
20260505191050 59 209 17.4 28.7 0.00 0.00 0.00 100 894.6
20260505190948 59 213 17.4 28.7 0.00 0.00 0.00 100 894.5
20260505190846 59 210 16.5 30.4 0.00 0.00 0.00 100 894.5
20260505190642 59 212 15.6 30.4 0.00 0.00 0.00 100 894.6
20260505190438 59 212 15.6 27.8 0.00 0.00 0.00 100 894.6
20260505190233 59 206 16.5 27.8 0.00 0.00 0.00 100 894.4
20260505190029 59 207 16.5 28.7 0.00 0.00 0.00 100 894.6
20260505185928 59 205 17.4 28.7 0.00 0.00 0.00 100 894.6
20260505185708 59 201 17.4 29.5 0.00 0.00 0.00 100 894.6
20260505185604 59 202 16.5 29.5 0.00 0.00 0.00 100 894.6
20260505185502 59 206 16.5 25.2 0.00 0.00 0.00 100 894.6
20260505185257 59 206 14.8 27.8 0.00 0.00 0.00 100 894.7
20260505185052 59 205 13.0 27.8 0.00 0.00 0.00 100 894.7
20260505184847 59 207 13.0 20.9 0.00 0.00 0.00 100 894.8
20260505184642 60 208 13.9 23.5 0.00 0.00 0.00 100 894.7
20260505184541 60 209 13.9 26.1 0.00 0.00 0.00 100 894.8
20260505184328 60 207 13.9 26.1 0.00 0.00 0.00 100 894.8
20260505184127 59 205 13.0 25.2 0.00 0.00 0.00 100 894.8
20260505183926 60 207 13.9 21.7 0.00 0.00 0.00 100 894.7
20260505183825 60 211 13.9 22.6 0.00 0.00 0.00 100 894.7
20260505183723 60 211 12.2 22.6 0.00 0.00 0.00 100 894.7
20260505183625 60 211 12.2 22.6 0.00 0.00 0.00 100 894.7
20260505183521 59 208 10.4 22.6 0.00 0.00 0.00 100 894.8
20260505183424 59 207 10.4 20.0 0.00 0.00 0.00 100 894.9
20260505183319 59 208 9.6 20.0 0.00 0.00 0.00 100 894.8
20260505183224 60 210 11.3 24.3 0.00 0.00 0.00 100 894.9
20260505183119 60 214 12.2 24.3 0.00 0.00 0.00 100 894.7
20260505183024 60 217 12.2 24.3 0.00 0.00 0.00 100 894.8
20260505182918 60 218 13.9 24.3 0.00 0.00 0.00 100 894.8
20260505182817 60 213 13.0 22.6 0.00 0.00 0.00 100 894.8
20260505182705 60 210 13.9 21.7 0.00 0.00 0.00 100 894.8
20260505182604 60 211 13.9 21.7 0.00 0.00 0.00 100 894.8
20260505182500 60 210 13.0 21.7 0.00 0.00 0.00 100 894.8
20260505182256 60 218 13.0 20.9 0.00 0.00 0.00 100 894.8
20260505182053 60 222 12.2 25.2 0.00 0.00 0.00 100 894.8
20260505181544 60 212 13.0 21.7 0.00 0.00 0.00 100 894.8
20260505181249 60 208 13.0 20.9 0.00 0.00 0.00 100 894.7
20260505181048 61 207 12.2 20.0 0.00 0.00 0.00 100 894.8
20260505181040 60 207 12.2 20.0 0.00 0.00 0.00 100 894.8
20260505180846 60 208 11.3 20.0 0.00 0.00 0.00 100 894.7
20260505180644 60 205 11.3 19.1 0.00 0.00 0.00 100 894.7
20260505180537 60 206 12.2 20.0 0.00 0.00 0.00 100 894.8
20260505180443 60 206 12.2 22.6 0.00 0.00 0.00 100 894.7
20260505175528 61 219 12.2 20.9 0.00 0.00 0.00 100 894.8
20260505175026 61 210 12.2 21.7 0.00 0.00 0.00 100 894.6
20260505174522 62 210 12.2 24.3 0.00 0.00 0.00 100 894.6
20260505174308 61 206 13.0 25.2 0.00 0.00 0.00 100 894.6
20260505174207 62 209 13.9 25.2 0.00 0.00 0.00 100 894.6
20260505174105 62 209 13.9 25.2 0.00 0.00 0.00 100 894.5
20260505173900 62 212 13.0 22.6 0.00 0.00 0.00 100 894.6
20260505173657 62 213 13.0 24.3 0.00 0.00 0.00 100 894.8
20260505173453 62 205 11.3 24.3 0.00 0.00 0.00 100 894.9
20260505173249 62 205 7.8 14.8 0.00 0.00 0.00 100 894.9
20260505173148 62 204 8.7 19.1 0.00 0.00 0.00 100 895.2
20260505172843 62 222 11.3 20.0 0.00 0.00 0.00 100 894.9
20260505172642 62 227 14.8 24.3 0.00 0.00 0.00 100 894.9
20260505172440 62 236 15.6 26.1 0.00 0.00 0.00 100 894.7
20260505172237 62 234 15.6 26.1 0.00 0.00 0.00 100 894.7
20260505172136 62 234 15.6 26.1 0.00 0.00 0.00 100 894.7
20260505172023 62 219 15.6 27.8 0.00 0.00 0.00 100 894.8
20260505171819 62 218 18.2 31.3 0.00 0.00 0.00 100 894.8
20260505171718 62 223 17.4 31.3 0.00 0.00 0.00 100 894.8
20260505171615 62 222 17.4 31.3 0.00 0.00 0.00 100 894.7
20260505171412 62 205 13.9 23.5 0.00 0.00 0.00 100 894.8
20260505171208 62 220 13.0 22.6 0.00 0.00 0.00 100 894.6
20260505171004 62 207 14.8 30.4 0.00 0.00 0.00 100 894.2
20260505170800 62 200 14.8 30.4 0.00 0.00 0.00 100 894.2
20260505170701 62 206 12.2 28.7 0.00 0.00 0.00 100 894.5
20260505170600 63 215 12.2 24.3 0.00 0.00 0.00 100 894.5
20260505170359 63 221 13.0 20.9 0.00 0.00 0.00 100 894.5
20260505170159 63 219 13.9 22.6 0.00 0.00 0.00 100 894.5
20260505165957 63 214 13.9 26.1 0.00 0.00 0.00 100 894.6
20260505165756 63 217 13.9 29.5 0.00 0.00 0.00 100 894.8
20260505165655 63 216 13.9 29.5 0.00 0.00 0.00 100 894.5
20260505165454 63 224 12.2 29.5 0.00 0.00 0.00 100 894.7
20260505165342 64 230 13.0 23.5 0.00 0.00 0.00 100 894.7
20260505165136 63 231 15.6 29.5 0.00 0.00 0.00 100 894.7
20260505164933 63 222 14.8 29.5 0.00 0.00 0.00 100 894.7
20260505164729 64 208 13.9 31.3 0.00 0.00 0.00 100 894.8
20260505164525 64 222 16.5 31.3 0.00 0.00 0.00 100 894.6
20260505164424 64 236 16.5 31.3 0.00 0.00 0.00 100 894.6
20260505164321 64 233 16.5 27.8 0.00 0.00 0.00 100 894.7
20260505164115 64 233 18.2 28.7 0.00 0.00 0.00 100 894.6
20260505163914 64 234 17.4 28.7 0.00 0.00 0.00 100 894.4
20260505163713 64 233 14.8 26.9 0.00 0.00 0.00 100 894.5
20260505163511 64 238 14.8 22.6 0.00 0.00 0.00 100 894.9
20260505163412 64 245 15.6 31.3 0.00 0.00 0.00 100 894.9
20260505163308 64 244 15.6 31.3 0.00 0.00 0.00 100 894.7
20260505163107 64 238 18.2 31.3 0.00 0.00 0.00 100 894.3
20260505162905 64 234 17.4 29.5 0.00 0.00 0.00 100 894.7
20260505162703 65 235 15.6 27.8 0.00 0.00 0.00 100 894.9
20260505162502 65 237 15.6 26.1 0.00 0.00 0.00 100 895.1
20260505162402 65 233 15.6 26.1 0.00 0.00 0.00 100 895.2
20260505162212 64 222 13.9 23.5 0.00 0.00 0.00 100 895.4
20260505162110 64 209 13.9 23.5 0.00 0.00 0.00 100 895.4
20260505161855 64 201 15.6 31.3 0.00 0.00 0.00 100 894.9
20260505161651 64 206 17.4 31.3 0.00 0.00 0.00 100 894.6
20260505161550 64 211 16.5 31.3 0.00 0.00 0.00 100 894.6
20260505161447 64 224 17.4 31.3 0.00 0.00 0.00 100 894.6
20260505161243 64 225 15.6 29.5 0.00 0.00 0.00 100 894.6
20260505161040 64 218 15.6 29.5 0.00 0.00 0.00 100 894.8
20260505160836 64 228 16.5 24.3 0.00 0.00 0.00 100 894.7
20260505160632 64 229 16.5 24.3 0.00 0.00 0.00 100 894.6
20260505160532 64 228 16.5 26.1 0.00 0.00 0.00 100 894.6
20260505160431 64 226 16.5 27.8 0.00 0.00 0.00 100 894.7
20260505160338 64 219 17.4 31.3 0.00 0.00 0.00 100 894.6
20260505160229 64 219 19.1 33.0 0.00 0.00 0.00 100 894.6
20260505160135 64 221 20.9 33.0 0.00 0.00 0.00 100 894.4
20260505153336 64 221 20.0 34.8 0.00 0.00 0.00 100 894.1
20260505153234 64 225 20.0 35.6 0.00 0.00 0.00 100 894.2
20260505153131 64 224 20.0 35.6 0.00 0.00 0.00 100 894.2
20260505152930 64 221 20.0 35.6 0.00 0.00 0.00 100 894.1
20260505152729 64 217 19.1 33.0 0.00 0.00 0.00 100 894.2
20260505152529 65 217 19.1 33.9 0.00 0.00 0.00 100 894.2
20260505152328 66 218 19.1 35.6 0.00 0.00 0.00 100 894.3
20260505152228 66 220 19.1 35.6 0.00 0.00 0.00 100 894.3
20260505152124 65 221 19.1 35.6 0.00 0.00 0.00 100 894.5
20260505151719 65 212 19.1 30.4 0.00 0.00 0.00 100 894.8
20260505151419 65 215 17.4 30.4 0.00 0.00 0.00 100 894.7
20260505151222 65 206 17.4 33.0 0.00 0.00 0.00 100 894.7
20260505151211 65 206 17.4 33.0 0.00 0.00 0.00 100 894.6
20260505151018 65 203 19.1 33.9 0.00 0.00 0.00 100 894.6
20260505150826 65 215 19.1 34.8 0.00 0.00 0.00 100 894.4
20260505150710 65 215 17.4 34.8 0.00 0.00 0.00 100 894.5
20260505150616 65 211 15.6 26.1 0.00 0.00 0.00 100 894.5
20260505150203 65 214 18.2 29.5 0.00 0.00 0.00 100 895.0
20260505140629 65 215 19.1 36.5 0.00 0.00 0.00 100 895.0
20260505140126 65 210 19.1 29.5 0.00 0.00 0.00 100 894.8
20260505130220 66 213 18.2 29.5 0.00 0.00 0.00 100 895.4
20260505130115 67 211 18.2 31.3 0.00 0.00 0.00 100 895.5
20260505124903 66 200 20.9 33.9 0.00 0.00 0.00 100 895.6
20260505124705 66 205 20.9 34.8 0.00 0.00 0.00 100 895.3
20260505124703 66 205 20.9 34.8 0.00 0.00 0.00 100 895.2
20260505124602 66 213 20.9 34.8 0.00 0.00 0.00 100 895.2
20260505124351 66 218 20.0 34.8 0.00 0.00 0.00 100 895.9
20260505124249 66 211 19.1 32.2 0.00 0.00 0.00 100 895.8
20260505124107 66 208 20.9 32.2 0.00 0.00 0.00 100 895.8
20260505124005 66 210 20.9 32.2 0.00 0.00 0.00 100 895.6
20260505123652 66 212 18.2 28.7 0.00 0.00 0.00 100 895.7
20260505123539 66 200 18.2 31.3 0.00 0.00 0.00 100 895.9
20260505123450 66 200 18.2 31.3 0.00 0.00 0.00 100 895.9
20260505123350 66 200 19.1 32.2 0.00 0.00 0.00 100 895.8
20260505123154 66 208 20.9 36.5 0.00 0.00 0.00 100 895.6
20260505123051 66 213 20.0 36.5 0.00 0.00 0.00 100 895.6
20260505122939 66 224 20.0 35.6 0.00 0.00 0.00 100 895.6
20260505122739 66 223 19.1 33.0 0.00 0.00 0.00 100 895.7
20260505122538 65 221 16.5 28.7 0.00 0.00 0.00 100 896.0
20260505122336 66 212 16.5 27.8 0.00 0.00 0.00 100 896.2
20260505122136 65 210 15.6 31.3 0.00 0.00 0.00 100 896.4
20260505122036 65 211 15.6 31.3 0.00 0.00 0.00 100 896.6
20260505121842 64 212 14.8 29.5 0.00 0.00 0.00 100 896.4
20260505121742 64 212 13.0 29.5 0.00 0.00 0.00 100 896.4
20260505121641 64 216 13.9 20.9 0.00 0.00 0.00 100 896.2
20260505121441 64 208 13.9 20.9 0.00 0.00 0.00 100 895.5
20260505121237 63 207 20.0 28.7 0.00 0.00 0.00 100 895.5
20260505121033 63 207 20.0 33.9 0.00 0.00 0.00 100 895.5
20260505120833 63 209 18.2 33.9 0.00 0.00 0.00 100 895.7
20260505120733 63 209 17.4 31.3 0.00 0.00 0.00 100 895.8
20260505120632 64 214 17.4 31.3 0.00 0.00 0.00 100 895.8
20260505120431 63 212 16.5 30.4 0.00 0.00 0.00 100 896.0
20260505120231 63 218 17.4 30.4 0.00 0.00 0.00 100 895.9
20260505120030 63 212 17.4 27.8 0.00 0.00 0.00 100 896.0
20260505115829 63 204 17.4 32.2 0.00 0.00 0.00 100 895.9
20260505115730 63 204 16.5 32.2 0.00 0.00 0.00 100 896.1
20260505115628 63 206 16.5 32.2 0.00 0.00 0.00 100 896.2
20260505115429 63 212 17.4 33.0 0.00 0.00 0.00 100 896.2
20260505115227 63 212 19.1 33.0 0.00 0.00 0.00 100 896.0
20260505115025 63 212 20.0 30.4 0.00 0.00 0.00 100 896.0
20260505114824 63 213 20.0 31.3 0.00 0.00 0.00 100 895.9
20260505114725 63 218 20.0 31.3 0.00 0.00 0.00 100 895.9
20260505114623 63 223 20.0 31.3 0.00 0.00 0.00 100 895.9
20260505114423 63 229 20.0 33.0 0.00 0.00 0.00 100 896.0
20260505114222 63 218 19.1 33.0 0.00 0.00 0.00 100 895.8
20260505114021 63 206 20.0 29.5 0.00 0.00 0.00 100 895.7
20260505113819 63 210 20.9 36.5 0.00 0.00 0.00 100 895.5
20260505113719 63 208 20.0 36.5 0.00 0.00 0.00 100 895.3
20260505113458 63 210 20.0 38.2 0.00 0.00 0.00 100 895.4
20260505113257 64 209 20.0 38.2 0.00 0.00 0.00 100 895.6
20260505113056 64 208 20.0 33.0 0.00 0.00 0.00 100 895.8
20260505112955 64 210 19.1 30.4 0.00 0.00 0.00 100 895.8
20260505112935 64 212 18.2 30.4 0.00 0.00 0.00 100 896.7
20260505112739 65 212 18.2 30.4 0.00 0.00 0.00 100 896.7
20260505112639 64 212 18.2 30.4 0.00 0.00 0.00 100 896.7
20260505112536 64 211 18.2 33.0 0.00 0.00 0.00 100 896.6
20260505112332 64 210 18.2 33.0 0.00 0.00 0.00 100 896.2
20260505112128 64 208 18.2 33.0 0.00 0.00 0.00 100 896.2
20260505111923 63 206 19.1 41.7 0.00 0.00 0.00 100 896.2
20260505111719 63 206 20.0 41.7 0.00 0.00 0.00 100 896.1
20260505111618 63 207 20.0 41.7 0.00 0.00 0.00 100 896.1
20260505111404 63 206 20.9 33.9 0.00 0.00 0.00 100 896.1
20260505111305 63 209 20.9 32.2 0.00 0.00 0.00 100 895.6
20260505111203 63 209 19.1 32.2 0.00 0.00 0.00 100 895.6
20260505111001 63 209 19.1 33.9 0.00 0.00 0.00 100 895.7
20260505110756 63 212 20.0 33.9 0.00 0.00 0.00 100 895.5
20260505110552 64 212 18.2 33.9 0.00 0.00 0.00 100 895.6
20260505110348 64 205 16.5 27.8 0.00 0.00 0.00 100 896.0
20260505110245 64 204 17.4 27.8 0.00 0.00 0.00 100 896.0
20260505102141 64 212 17.4 27.8 0.00 0.00 0.00 100 896.6
20260505102135 63 212 18.2 32.2 0.00 0.00 0.00 100 896.2
20260505101938 63 216 19.1 28.7 0.00 0.00 0.00 100 896.3
20260505101735 63 212 18.2 32.2 0.00 0.00 0.00 100 896.2
20260505101531 63 209 19.1 32.2 0.00 0.00 0.00 100 895.9
20260505101327 64 211 20.9 39.1 0.00 0.00 0.00 100 895.6
20260505101226 64 212 20.9 39.1 0.00 0.00 0.00 100 895.7
20260505100948 64 212 19.1 36.5 0.00 0.00 0.00 100 896.0
20260505100748 64 223 19.1 36.5 0.00 0.00 0.00 100 896.6
20260505100547 64 225 20.0 34.8 0.00 0.00 0.00 100 896.0
20260505100446 64 223 18.2 34.8 0.00 0.00 0.00 100 896.0
20260505100327 65 229 17.4 34.8 0.00 0.00 0.00 100 896.4
20260505100122 64 228 17.4 31.3 0.00 0.00 0.00 100 897.1
20260505100021 64 228 19.1 35.6 0.00 0.00 0.00 100 897.0
20260505095710 64 217 20.9 33.9 0.00 0.00 0.00 100 896.2
20260505095509 64 214 19.1 29.5 0.00 0.00 0.00 100 896.5
20260505095305 64 222 20.0 33.0 0.00 0.00 0.00 100 896.6
20260505095204 64 225 20.9 33.0 0.00 0.00 0.00 100 896.6
20260505094940 64 224 19.1 33.0 0.00 0.00 0.00 100 896.6
20260505094738 63 219 19.1 30.4 0.00 0.00 0.00 100 896.6
20260505094536 63 220 20.9 31.3 0.00 0.00 0.00 100 896.6
20260505094332 63 213 20.0 33.9 0.00 0.00 0.00 100 896.8
20260505094303 63 211 20.0 33.9 0.00 0.00 0.00 100 896.8
20260505094129 63 211 20.0 33.9 0.00 0.00 0.00 100 896.8
20260505093929 63 214 21.7 36.5 0.00 0.00 0.00 100 896.3
20260505093728 63 218 20.9 36.5 0.00 0.00 0.00 100 896.4
20260505093526 63 213 21.7 38.2 0.00 0.00 0.00 100 896.4
20260505093425 63 211 22.6 38.2 0.00 0.00 0.00 100 896.4
20260505093224 63 208 23.5 38.2 0.00 0.00 0.00 100 896.1
20260505093014 63 220 21.7 38.2 0.00 0.00 0.00 100 896.1
20260505092911 64 226 20.9 38.2 0.00 0.00 0.00 100 896.1
20260505092736 63 220 20.0 33.0 0.00 0.00 0.00 100 896.9
20260505092534 63 220 20.0 33.9 0.00 0.00 0.00 100 896.6
20260505092334 63 213 20.0 33.9 0.00 0.00 0.00 100 896.5
20260505092233 63 213 19.1 33.9 0.00 0.00 0.00 100 896.5
20260505092033 63 212 20.9 35.6 0.00 0.00 0.00 100 896.7
20260505091856 62 215 21.7 35.6 0.00 0.00 0.00 100 896.3
20260505091655 63 219 19.1 34.8 0.00 0.00 0.00 100 896.8
20260505091454 63 212 19.1 34.8 0.00 0.00 0.00 100 896.8
20260505091354 63 211 18.2 31.3 0.00 0.00 0.00 100 896.8
20260505091156 63 214 20.9 34.8 0.00 0.00 0.00 100 896.5
20260505090956 62 221 22.6 38.2 0.00 0.00 0.00 100 896.5
20260505090755 62 222 23.5 38.2 0.00 0.00 0.00 100 896.5
20260505090551 62 218 24.3 38.2 0.00 0.00 0.00 100 896.1
20260505090246 63 224 21.7 38.2 0.00 0.00 0.00 100 896.2
20260505085931 62 213 21.7 37.4 0.00 0.00 0.00 100 896.8
20260505085420 62 209 21.7 34.8 0.00 0.00 0.00 100 896.5
20260505084912 62 220 21.7 35.6 0.00 0.00 0.00 100 896.4
20260505084736 62 223 20.9 35.6 0.00 0.00 0.00 100 896.4
20260505084233 62 220 23.5 39.1 0.00 0.00 0.00 100 896.5
20260505083920 61 219 24.3 40.8 0.00 0.00 0.00 100 896.0
20260505083412 62 215 25.2 39.1 0.00 0.00 0.00 100 896.1
20260505082901 61 216 26.1 46.9 0.00 0.00 0.00 100 896.0
20260505082804 61 216 24.3 46.9 0.00 0.00 0.00 100 896.0
20260505082603 62 215 23.5 46.9 0.00 0.00 0.00 100 896.1
20260505082359 62 216 25.2 38.2 0.00 0.00 0.00 100 896.1
20260505082201 61 218 26.1 38.2 0.00 0.00 0.00 100 896.1
20260505082001 62 219 22.6 38.2 0.00 0.00 0.00 100 896.3
20260505081857 62 219 22.6 36.5 0.00 0.00 0.00 100 896.8
20260505081800 62 219 22.6 36.5 0.00 0.00 0.00 100 896.8
20260505081559 62 225 24.3 40.8 0.00 0.00 0.00 100 896.6
20260505081356 61 219 25.2 41.7 0.00 0.00 0.00 100 896.5
20260505081158 61 214 24.3 42.6 0.00 0.00 0.00 100 896.4
20260505080957 61 215 26.1 42.6 0.00 0.00 0.00 100 896.3
20260505080854 61 215 26.9 42.6 0.00 0.00 0.00 100 896.2
20260505080757 61 218 26.1 41.7 0.00 0.00 0.00 100 896.2
20260505080556 61 220 23.5 41.7 0.00 0.00 0.00 100 896.5
20260505080351 61 212 21.7 39.1 0.00 0.00 0.00 100 896.9
20260505080154 61 213 25.2 39.1 0.00 0.00 0.00 100 896.5
20260505075953 60 221 24.3 39.1 0.00 0.00 0.00 100 896.1
20260505075848 60 218 24.3 39.1 0.00 0.00 0.00 100 896.2
20260505075751 60 217 24.3 40.0 0.00 0.00 0.00 100 896.2
20260505075341 61 214 24.3 39.1 0.00 0.00 0.00 100 896.1
20260505075117 60 219 22.6 38.2 0.00 0.00 0.00 100 896.3
20260505074613 61 220 20.9 33.9 0.00 0.00 0.00 100 896.8
20260505074444 61 219 20.0 33.9 0.00 0.00 0.00 100 896.8
20260505074105 61 212 20.0 33.9 0.00 0.00 0.00 100 896.7
20260505073600 61 207 20.9 34.8 0.00 0.00 0.00 100 896.5
20260505073052 60 213 23.5 39.1 0.00 0.00 0.00 100 896.6
20260505072841 60 222 22.6 38.2 0.00 0.00 0.00 100 896.4
20260505072524 60 217 22.6 36.5 0.00 0.00 0.00 100 896.4
20260505072019 60 208 23.5 40.0 0.00 0.00 0.00 100 896.6
20260505071600 60 210 21.7 40.0 0.00 0.00 0.00 100 896.9
20260505071054 60 213 23.5 37.4 0.00 0.00 0.00 100 896.6
20260505070854 60 216 24.3 36.5 0.00 0.00 0.00 100 896.5
20260505070653 60 220 24.3 41.7 0.00 0.00 0.00 100 896.6
20260505070550 60 220 24.3 41.7 0.00 0.00 0.00 100 896.7
20260505070206 60 221 24.3 40.0 0.00 0.00 0.00 100 897.0
20260505065601 59 217 20.9 37.4 0.00 0.00 0.00 100 896.7
20260505065050 59 213 21.7 37.4 0.00 0.00 0.00 100 896.8
20260505064539 59 214 22.6 36.5 0.00 0.00 0.00 100 896.5
20260505064404 59 215 21.7 33.0 0.00 0.00 0.00 100 896.1
20260505063859 59 210 19.1 34.8 0.00 0.00 0.00 100 896.6
20260505063620 59 210 22.6 39.1 0.00 0.00 0.00 100 896.3
20260505063116 59 215 20.9 34.8 0.00 0.00 0.00 100 896.7
20260505062836 59 212 23.5 40.8 0.00 0.00 0.00 100 896.5
20260505062332 59 207 21.7 40.8 0.00 0.00 0.00 100 896.8
20260505062156 59 209 21.7 40.8 0.00 0.00 0.00 100 896.5
20260505061654 59 208 24.3 39.1 0.00 0.00 0.00 100 896.4
20260505061511 59 210 23.5 39.1 0.00 0.00 0.00 100 896.7
20260505060941 58 206 22.6 38.2 0.00 0.00 0.00 100 896.7
20260505060732 58 205 21.7 38.2 0.00 0.00 0.00 100 896.7
20260505060419 58 206 24.3 39.1 0.00 0.00 0.00 100 896.6
20260505055909 58 211 22.6 37.4 0.00 0.00 0.00 100 896.7
20260505055637 58 209 23.5 40.0 0.00 0.00 0.00 100 896.5
20260505055133 58 206 22.6 40.0 0.00 0.00 0.00 100 896.6
20260505054809 57 208 21.7 38.2 0.00 0.00 0.00 100 896.6
20260505054259 57 206 20.0 33.0 0.00 0.00 0.00 100 897.0
20260505053948 57 208 21.7 40.0 0.00 0.00 0.00 100 896.8
20260505053430 57 211 21.7 33.0 0.00 0.00 0.00 100 896.9
20260505052919 57 205 22.6 36.5 0.00 0.00 0.00 100 896.8
20260505052513 57 210 21.7 36.5 0.00 0.00 0.00 100 896.8
20260505052407 57 205 21.7 36.5 0.00 0.00 0.00 100 896.7
20260505052307 57 203 21.7 36.5 0.00 0.00 0.00 100 896.7
20260505052106 57 206 22.6 36.5 0.00 0.00 0.00 100 896.5
20260505051905 57 207 20.9 35.6 0.00 0.00 0.00 100 896.3
20260505051705 57 205 20.0 32.2 0.00 0.00 0.00 100 896.1
20260505051504 57 204 20.0 32.2 0.00 0.00 0.00 100 896.1
20260505051403 57 204 19.1 28.7 0.00 0.00 0.00 100 896.5
20260505051304 56 208 18.2 32.2 0.00 0.00 0.00 100 899.5
20260505051103 56 210 20.0 32.2 0.00 0.00 0.00 100 896.5
20260505050859 56 209 20.0 36.5 0.00 0.00 0.00 100 896.0
20260505050503 56 210 19.1 32.2 0.00 0.00 0.00 100 896.1
20260505050303 56 206 19.1 32.2 0.00 0.00 0.00 100 896.8
20260505050103 56 205 19.1 30.4 0.00 0.00 0.00 100 896.5
20260505041701 56 208 18.2 36.5 0.00 0.00 0.00 100 896.2
20260505041500 56 207 19.1 36.5 0.00 0.00 0.00 100 898.2
20260505041357 56 207 18.2 33.0 0.00 0.00 0.00 100 900.2
20260505041259 56 207 18.2 33.0 0.00 0.00 0.00 100 896.6
20260505041058 56 205 18.2 29.5 0.00 0.00 0.00 100 898.9
20260505040855 56 209 19.1 29.5 0.00 0.00 0.00 100 897.5
20260505040655 56 210 19.1 30.4 0.00 0.00 0.00 100 895.4
20260505040455 56 207 17.4 30.4 0.00 0.00 0.00 100 895.4
20260505040352 56 207 16.5 30.4 0.00 0.00 0.00 100 895.2
20260505040132 56 209 17.4 30.4 0.00 0.00 0.00 100 905.0
20260505035627 56 208 17.4 28.7 0.00 0.00 0.00 100 895.1
20260505035404 56 211 17.4 29.5 0.00 0.00 0.00 100 896.8
20260505034748 56 214 18.2 31.3 0.00 0.00 0.00 100 895.1
20260505034142 56 208 18.2 31.3 0.00 0.00 0.00 100 899.0
20260505033941 56 208 17.4 28.7 0.00 0.00 0.00 100 900.7
20260505033736 55 208 15.6 27.8 0.00 0.00 0.00 100 895.0
20260505033539 56 211 17.4 28.7 0.00 0.00 0.00 100 903.5
20260505033336 56 210 18.2 30.4 0.00 0.00 0.00 100 895.0
20260505033232 56 210 18.2 30.4 0.00 0.00 0.00 100 895.0
20260505033135 56 211 18.2 30.4 0.00 0.00 0.00 100 895.0
20260505032934 56 211 19.1 28.7 0.00 0.00 0.00 100 896.2
20260505032730 56 212 18.2 27.8 0.00 0.00 0.00 100 901.5
20260505032532 56 213 16.5 26.9 0.00 0.00 0.00 100 895.1
20260505032331 56 212 15.6 26.1 0.00 0.00 0.00 100 902.5
20260505032227 56 212 15.6 26.1 0.00 0.00 0.00 100 902.5
20260505032131 56 210 16.5 26.9 0.00 0.00 0.00 100 895.2
20260505031930 56 209 17.4 32.2 0.00 0.00 0.00 100 895.2
20260505031729 56 210 16.5 32.2 0.00 0.00 0.00 100 895.8
20260505031527 56 209 17.4 31.3 0.00 0.00 0.00 100 895.4
20260505031326 56 208 15.6 28.7 0.00 0.00 0.00 100 895.8
20260505031222 56 209 15.6 26.1 0.00 0.00 0.00 100 895.8
20260505031125 56 209 16.5 26.1 0.00 0.00 0.00 100 900.9
20260505030925 56 209 17.4 30.4 0.00 0.00 0.00 100 899.9
20260505030721 56 215 16.5 30.4 0.00 0.00 0.00 100 898.1
20260505030524 56 215 15.6 29.5 0.00 0.00 0.00 100 897.0
20260505030324 56 211 15.6 27.8 0.00 0.00 0.00 100 896.0
20260505030219 56 210 15.6 26.1 0.00 0.00 0.00 100 897.2
20260505030122 56 209 15.6 26.1 0.00 0.00 0.00 100 897.2
20260505025922 56 209 16.5 26.1 0.00 0.00 0.00 100 897.5
20260505025718 56 206 15.6 29.5 0.00 0.00 0.00 100 898.4
20260505025508 56 205 15.6 29.5 0.00 0.00 0.00 100 896.3
20260505025307 56 211 15.6 26.1 0.00 0.00 0.00 100 899.1